Location: Eitze
(52.9840°N, 9.6894°E)
Time: 21:37:21
(UTC+00:00)

Cosmos 2082 Rocket - Pass Details

Date: 19 May 2025
Orbit: 832 x 853 km, 71.0° (Epoch: 15 June)

Event Time Altitude Azimuth Distance (km) Brightness Sun altitude
Exits shadow 23:23:45 - 243° (WSW) 3,151 4.9 -17.0°
Reaches altitude 10° 23:25:46 10° 250° (WSW) 2,443 4.4 -17.0°
Maximum altitude 23:30:54 36° 316° (NW) 1,316 3.6 -17.0°
Drops below altitude 10° 23:36:04 10° 23° (NNE) 2,463 5.8 -16.9°
Sets 23:38:44 0° 32° (NNE) 3,404 6.5 -16.9°
